Terminal Aerodrome Forecast
Issued by NWS Bismarck, ND

Home | Current Version | Previous Version | Text Only | Print | Product List | Glossary Off
Versions: 1 2 3 4 5 6 7 8 9 10 11 12 13 14 15 16 17 18 19 20 21 22 23 24 25 26

000
FTUS43 KBIS 262300
TAFISN
TAF
KISN 262320Z 2700/2724 12004KT P6SM BKN050
     FM270700 15006KT 2SM -SN OVC020
     FM271200 15005KT P6SM BKN018
     FM271400 24005KT P6SM BKN035
     FM271800 30010KT P6SM BKN090=

USA.gov is the U.S. government's official web portal to all federal, state and local government web resources and services.